CW9822 Weather Reports


Display with metric or nautical units.
time (UTC)temp
F
wind
direction
speed
MPH
gust
MPH
rain 1hr
in
rain 24hr
in
rain mn
in
humidity
%
barometer
mb
20260505121827 46 215 0.0 0.0 0.00 0.00 0.00 94 1014.8
20260505121317 46 215 0.0 0.0 0.00 0.00 0.00 94 1014.8
20260505120829 46 215 0.0 0.0 0.00 0.00 0.00 94 1014.8
20260505120322 46 215 0.0 0.0 0.00 0.00 0.00 94 1014.9
20260505115835 46 215 0.0 0.0 0.00 0.00 0.00 94 1014.9
20260505115325 46 215 0.0 0.0 0.00 0.00 0.00 94 1014.8
20260505114836 46 215 0.0 0.0 0.00 0.00 0.00 93 1014.9
20260505114324 46 215 0.0 0.0 0.00 0.00 0.00 93 1014.8
20260505113817 46 215 0.0 0.0 0.00 0.00 0.00 93 1014.8
20260505113325 46 215 0.0 0.0 0.00 0.00 0.00 93 1014.8
20260505112834 46 215 0.0 0.0 0.00 0.00 0.00 93 1014.8
20260505112323 46 215 0.0 0.0 0.00 0.00 0.00 93 1014.8
20260505111833 46 215 0.0 0.0 0.00 0.00 0.00 93 1014.8
20260505111322 46 215 0.0 0.0 0.00 0.00 0.00 93 1014.7
20260505110832 47 215 0.0 0.0 0.00 0.00 0.00 93 1014.7
20260505110321 47 215 0.0 0.0 0.00 0.00 0.00 93 1014.7
20260505101831 47 215 0.0 0.0 0.00 0.00 0.00 93 1014.3
20260505101319 48 215 0.0 0.0 0.00 0.00 0.00 93 1014.2
20260505100830 48 215 0.0 0.0 0.00 0.00 0.00 93 1014.2
20260505100318 48 215 0.0 0.0 0.00 0.00 0.00 93 1014.3
20260505095832 48 215 0.0 0.0 0.00 0.00 0.00 93 1014.2
20260505095321 48 215 0.0 0.0 0.00 0.00 0.00 93 1014.3
20260505094834 48 215 0.0 0.0 0.00 0.00 0.00 92 1014.2
20260505094322 48 215 0.0 0.0 0.00 0.00 0.00 92 1014.3
20260505093832 48 215 0.0 0.0 0.00 0.00 0.00 92 1014.2
20260505093323 48 215 0.0 0.0 0.00 0.00 0.00 92 1014.2
20260505092833 48 215 0.0 0.0 0.00 0.00 0.00 92 1014.2
20260505092324 48 215 0.0 0.0 0.00 0.00 0.00 92 1014.0
20260505091820 49 215 0.0 0.0 0.00 0.00 0.00 92 1014.1
20260505091330 49 215 0.0 0.0 0.00 0.00 0.00 92 1014.1
20260505090818 49 215 0.0 0.0 0.00 0.00 0.00 92 1014.2
20260505090328 49 215 0.0 0.0 0.00 0.00 0.00 92 1014.2
20260505085839 49 215 0.0 0.0 0.00 0.00 0.00 92 1014.2
20260505085326 49 215 0.0 0.0 0.00 0.00 0.00 92 1014.1
20260505084836 49 215 0.0 0.0 0.00 0.00 0.00 92 1014.1
20260505084324 50 215 0.0 0.0 0.00 0.00 0.00 92 1014.0
20260505083814 50 215 0.0 0.0 0.00 0.00 0.00 92 1014.0
20260505083347 50 215 0.0 0.0 0.00 0.00 0.00 91 1014.0
20260505082818 50 215 0.0 0.0 0.00 0.00 0.00 91 1013.9
20260505082328 50 215 0.0 0.0 0.00 0.00 0.00 91 1013.8
20260505081837 50 215 0.0 0.0 0.00 0.00 0.00 91 1013.8
20260505081325 50 215 0.0 0.0 0.00 0.00 0.00 91 1013.8
20260505080818 50 215 0.0 0.0 0.00 0.00 0.00 91 1013.8
20260505080347 51 215 0.0 0.0 0.00 0.00 0.00 91 1013.7
20260505075839 51 215 0.0 0.0 0.00 0.00 0.00 91 1013.7
20260505075330 51 215 0.0 0.0 0.00 0.00 0.00 91 1013.7
20260505074818 51 215 0.0 0.0 0.00 0.00 0.00 90 1013.6
20260505074328 51 215 0.0 0.0 0.00 0.00 0.00 90 1013.6
20260505073817 51 215 0.0 0.0 0.00 0.00 0.00 90 1013.5
20260505073331 51 215 0.0 0.0 0.00 0.00 0.00 90 1013.5
20260505072819 51 215 0.0 0.0 0.00 0.00 0.00 90 1013.4
20260505072349 51 215 0.0 0.0 0.00 0.00 0.00 90 1013.4
20260505071818 51 215 0.0 0.0 0.00 0.00 0.00 90 1013.5
20260505071326 51 215 0.0 0.0 0.00 0.00 0.00 90 1013.3
20260505070816 51 215 0.0 0.0 0.00 0.00 0.00 90 1013.4
20260505070324 52 215 0.0 0.0 0.00 0.00 0.00 90 1013.3
20260505065831 52 215 0.0 0.0 0.00 0.00 0.00 89 1013.3
20260505065342 52 215 0.0 2.0 0.00 0.00 0.00 89 1013.2
20260505064835 52 215 0.0 2.0 0.00 0.00 0.00 89 1013.3
20260505064343 52 215 0.0 0.0 0.00 0.00 0.00 89 1013.3
20260505063832 52 215 0.0 3.0 0.00 0.00 0.00 89 1013.3
20260505063324 52 215 0.0 3.0 0.00 0.00 0.00 89 1013.3
20260505062833 52 199 0.0 0.0 0.00 0.00 0.00 89 1013.3
20260505062322 52 199 0.0 0.0 0.00 0.00 0.00 89 1013.2
20260505061833 52 199 0.0 0.0 0.00 0.00 0.00 89 1013.2
20260505061324 52 199 0.0 0.0 0.00 0.00 0.00 88 1013.3
20260505060832 52 199 0.0 0.0 0.00 0.00 0.00 88 1013.3
20260505060320 52 199 0.0 0.0 0.00 0.00 0.00 88 1013.3
20260505055831 52 196 0.0 5.0 0.00 0.00 0.00 88 1013.3
20260505055322 52 272 0.0 1.0 0.00 0.00 0.00 88 1013.2
20260505054851 52 273 0.0 0.0 0.00 0.00 0.00 88 1013.1
20260505054319 53 273 0.0 0.0 0.00 0.00 0.00 88 1013.2
20260505053833 53 273 0.0 0.0 0.00 0.00 0.00 87 1013.2
20260505053322 53 273 0.0 1.0 0.00 0.00 0.00 87 1013.1
20260505052831 53 200 0.0 0.0 0.00 0.00 0.00 87 1013.2
20260505052319 53 199 0.0 0.0 0.00 0.00 0.00 87 1013.1
20260505051850 53 199 0.0 0.0 0.00 0.00 0.00 87 1013.2
20260505051318 53 199 0.0 0.0 0.00 0.00 0.00 86 1013.2
20260505050847 53 199 0.0 0.0 0.00 0.00 0.00 86 1013.0
20260505050314 54 199 0.0 0.0 0.00 0.00 0.00 85 1012.9
20260505041333 56 199 0.0 0.0 0.00 0.00 0.00 83 1012.4
20260505040823 56 185 0.0 4.0 0.00 0.00 0.00 82 1012.3
20260505040332 56 185 0.0 4.0 0.00 0.00 0.00 82 1012.1
20260505035841 57 221 0.0 0.0 0.00 0.00 0.00 82 1011.9
20260505035328 57 221 0.0 0.0 0.00 0.00 0.00 82 1011.9
20260505034822 57 221 0.0 0.0 0.00 0.00 0.00 81 1011.9
20260505034332 58 221 0.0 0.0 0.00 0.00 0.00 81 1011.9
20260505033821 58 221 0.0 0.0 0.00 0.00 0.00 80 1011.8
20260505033329 58 221 0.0 0.0 0.00 0.00 0.00 80 1011.7
20260505032818 59 221 0.0 0.0 0.00 0.00 0.00 80 1011.7
20260505032327 59 221 0.0 0.0 0.00 0.00 0.00 79 1011.5
20260505031835 59 221 0.0 0.0 0.00 0.00 0.00 79 1011.3
20260505031325 60 221 0.0 0.0 0.00 0.00 0.00 78 1011.3
20260505030834 60 221 0.0 0.0 0.00 0.00 0.00 77 1011.3
20260505030327 61 221 0.0 0.0 0.00 0.00 0.00 77 1011.4
20260505025817 61 221 0.0 0.0 0.00 0.00 0.00 77 1011.3
20260505025326 61 221 0.0 1.0 0.00 0.00 0.00 76 1011.3
20260505024855 61 221 0.0 0.0 0.00 0.00 0.00 77 1011.2
20260505024322 62 221 0.0 0.0 0.00 0.00 0.00 77 1011.1
20260505023832 62 221 0.0 0.0 0.00 0.00 0.00 76 1011.0
20260505023322 62 221 0.0 1.0 0.00 0.00 0.00 75 1011.0
20260505022831 62 221 0.0 1.0 0.00 0.00 0.00 75 1010.9
20260505022323 63 220 0.0 0.0 0.00 0.00 0.00 74 1010.8
20260505021853 63 220 0.0 0.0 0.00 0.00 0.00 74 1010.8
20260505021321 63 220 0.0 2.0 0.00 0.00 0.00 73 1010.9
20260505020818 64 220 0.0 2.0 0.00 0.00 0.00 73 1010.9
20260505020351 64 224 0.0 2.0 0.00 0.00 0.00 73 1010.9
20260505015823 64 225 0.0 1.0 0.00 0.00 0.00 73 1010.8
20260505015316 64 222 0.0 1.0 0.00 0.00 0.00 71 1010.8
20260505014828 65 222 0.0 3.0 0.00 0.00 0.00 72 1010.8
20260505014321 65 223 0.0 3.0 0.00 0.00 0.00 71 1010.8
20260505013834 65 222 0.0 2.0 0.00 0.00 0.00 71 1010.7
20260505013328 66 254 0.0 2.0 0.00 0.00 0.00 71 1010.8
20260505012820 66 254 0.0 5.0 0.00 0.00 0.00 70 1010.9
20260505012320 66 240 0.0 5.0 0.00 0.00 0.00 71 1011.1
20260505011833 66 254 0.0 2.0 0.00 0.00 0.00 70 1011.1
20260505011325 67 254 0.0 0.0 0.00 0.00 0.00 70 1011.1
20260505010835 67 254 0.0 1.0 0.00 0.00 0.00 70 1011.0
20260505010325 67 254 0.0 1.0 0.00 0.00 0.00 69 1011.0
20260505005833 67 254 0.0 1.0 0.00 0.00 0.00 69 1011.1
20260505005323 67 255 0.0 1.0 0.00 0.00 0.00 69 1011.0
20260505004853 67 255 0.0 4.0 0.00 0.00 0.00 69 1011.1
20260505004321 67 255 0.0 4.0 0.00 0.00 0.00 68 1011.1
20260505003851 67 237 0.0 2.0 0.00 0.00 0.00 68 1011.1
20260505003322 68 239 0.0 1.0 0.00 0.00 0.00 68 1011.0
20260505002832 68 239 0.0 1.0 0.00 0.00 0.00 68 1011.0
20260505002321 68 239 0.0 1.0 0.00 0.00 0.00 67 1011.1
20260505001851 68 256 0.0 1.0 0.00 0.00 0.00 67 1011.0
20260505001322 68 254 0.0 1.0 0.00 0.00 0.00 67 1011.0
20260505000832 68 254 0.0 5.0 0.00 0.00 0.00 66 1011.2
20260505000322 69 249 1.0 5.0 0.00 0.00 0.00 66 1011.2
20260504235852 68 82 1.0 4.0 0.00 0.00 0.00 66 1011.1
20260504235319 68 272 0.0 3.0 0.00 0.00 0.00 68 1011.1
20260504234830 68 280 0.0 3.0 0.00 0.00 0.00 68 1011.1
20260504234322 68 204 0.0 4.0 0.00 0.00 0.00 66 1011.2
20260504233834 69 239 1.0 4.0 0.00 0.00 0.00 65 1011.2
20260504233325 69 197 0.0 4.0 0.00 0.00 0.00 65 1011.2
20260504232818 69 175 0.0 1.0 0.00 0.00 0.00 66 1011.3
20260504232351 69 175 0.0 4.0 0.00 0.00 0.00 66 1011.5
20260504231827 70 175 0.0 4.0 0.00 0.00 0.00 65 1011.4
20260504231340 70 143 0.0 2.0 0.00 0.00 0.00 66 1011.4
20260504230833 70 26 0.0 7.0 0.00 0.00 0.00 64 1011.6
20260504230324 70 345 0.0 7.0 0.00 0.00 0.00 66 1011.5
20260504225818 70 290 1.0 5.0 0.00 0.00 0.00 64 1011.5
20260504225328 70 295 0.0 3.0 0.00 0.00 0.00 66 1011.5
20260504224817 71 235 0.0 4.0 0.00 0.00 0.00 64 1011.5
20260504224326 71 175 0.0 4.0 0.00 0.00 0.00 63 1011.7
20260504223840 71 191 0.0 3.0 0.00 0.00 0.00 62 1011.8
20260504223331 71 208 1.0 3.0 0.00 0.00 0.00 63 1011.8
20260504222820 71 164 0.0 2.0 0.00 0.00 0.00 62 1011.8
20260504222329 71 35 0.0 3.0 0.00 0.00 0.00 64 1011.8
20260504221838 71 91 0.0 4.0 0.00 0.00 0.00 63 1011.9
20260504221330 72 70 1.0 4.0 0.00 0.00 0.00 62 1011.9
20260504220840 72 286 0.0 1.0 0.00 0.00 0.00 62 1011.9
20260504220328 72 219 0.0 2.0 0.00 0.00 0.00 64 1012.0
20260504215825 72 208 0.0 5.0 0.00 0.00 0.00 64 1012.2
20260504215333 72 180 0.0 5.0 0.00 0.00 0.00 61 1012.2
20260504214823 72 163 0.0 3.0 0.00 0.00 0.00 63 1012.3
20260504214333 71 198 0.0 3.0 0.00 0.00 0.00 65 1012.2
20260504213841 71 190 0.0 1.0 0.00 0.00 0.00 64 1012.2
20260504213330 70 192 0.0 5.0 0.00 0.00 0.00 65 1012.2
20260504212839 70 205 0.0 5.0 0.00 0.00 0.00 65 1012.2
20260504212327 70 200 0.0 3.0 0.00 0.00 0.00 68 1012.1
20260504211836 70 234 0.0 3.0 0.00 0.00 0.00 66 1012.4
20260504211326 69 133 0.0 3.0 0.00 0.00 0.00 65 1012.5
20260504210819 69 222 1.0 3.0 0.00 0.00 0.00 65 1012.7
20260504210328 70 207 0.0 3.0 0.00 0.00 0.00 66 1012.5
20260504205820 70 110 0.0 3.0 0.00 0.00 0.00 64 1012.7
20260504205333 70 170 0.0 6.0 0.00 0.00 0.00 67 1012.8
20260504204822 70 227 0.0 6.0 0.00 0.00 0.00 66 1012.9
20260504204331 69 246 0.0 3.0 0.00 0.00 0.00 67 1012.9
20260504203839 69 256 0.0 1.0 0.00 0.00 0.00 69 1012.8
20260504203328 68 138 0.0 0.0 0.00 0.00 0.00 71 1012.9
20260504202817 68 77 0.0 5.0 0.00 0.00 0.00 68 1012.9
20260504202326 68 77 1.0 5.0 0.00 0.00 0.00 67 1013.0
20260504201819 68 199 0.0 3.0 0.00 0.00 0.00 69 1013.0
20260504201332 68 199 0.0 4.0 0.00 0.00 0.00 71 1012.9
20260504200843 67 254 0.0 4.0 0.00 0.00 0.00 70 1012.9
20260504200331 67 151 0.0 2.0 0.00 0.00 0.00 69 1012.9
20260504195820 66 155 0.0 2.0 0.00 0.00 0.00 70 1012.9
20260504195332 66 104 0.0 4.0 0.00 0.00 0.00 70 1012.9
20260504194824 66 92 0.0 4.0 0.00 0.00 0.00 72 1012.9
20260504194317 65 197 0.0 4.0 0.00 0.00 0.00 73 1012.8
20260504193830 65 97 0.0 4.0 0.00 0.00 0.00 71 1012.9
20260504193327 65 97 1.0 4.0 0.00 0.00 0.00 71 1013.0
20260504192820 65 83 0.0 4.0 0.00 0.00 0.00 72 1013.0
20260504192333 64 84 1.0 4.0 0.00 0.00 0.00 72 1013.1
20260504191826 64 89 0.0 1.0 0.00 0.00 0.00 74 1013.1
20260504191337 64 89 0.0 3.0 0.00 0.00 0.00 74 1013.1
20260504190828 64 89 0.0 4.0 0.00 0.00 0.00 73 1013.2
20260504190319 64 164 1.0 3.0 0.00 0.00 0.00 75 1013.2
20260504185829 63 107 1.0 3.0 0.00 0.00 0.00 74 1013.2
20260504185326 63 191 0.0 3.0 0.00 0.00 0.00 75 1013.2
20260504184819 63 77 1.0 3.0 0.00 0.00 0.00 74 1013.3
20260504184352 63 111 0.0 1.0 0.00 0.00 0.00 77 1013.3
20260504183824 63 111 0.0 1.0 0.00 0.00 0.00 76 1013.3
20260504183316 62 111 0.0 4.0 0.00 0.00 0.00 76 1013.4
20260504182829 62 81 0.0 5.0 0.00 0.00 0.00 76 1013.2
20260504182321 62 127 1.0 2.0 0.00 0.00 0.00 76 1013.2
20260504181817 62 134 0.0 3.0 0.00 0.00 0.00 78 1013.2
20260504181330 62 202 0.0 3.0 0.00 0.00 0.00 77 1013.2
20260504180826 62 175 0.0 3.0 0.00 0.00 0.00 77 1013.2
20260504180319 62 212 0.0 3.0 0.00 0.00 0.00 76 1013.2
20260504175831 61 162 0.0 2.0 0.00 0.00 0.00 78 1013.2
20260504175323 61 99 0.0 3.0 0.00 0.00 0.00 78 1013.3
20260504174818 60 243 0.0 2.0 0.00 0.00 0.00 79 1013.2
20260504174330 60 243 0.0 0.0 0.00 0.00 0.00 79 1013.2
20260504173823 60 243 0.0 0.0 0.00 0.00 0.00 80 1013.2
20260504173339 60 243 0.0 0.0 0.00 0.00 0.00 80 1013.3
20260504172852 59 243 0.0 1.0 0.00 0.00 0.00 80 1013.3
20260504172324 59 243 0.0 1.0 0.00 0.00 0.00 82 1013.2
20260504171842 59 244 0.0 0.0 0.00 0.00 0.00 81 1013.3
20260504171334 59 242 0.0 1.0 0.00 0.00 0.00 82 1013.5
20260504170827 58 242 0.0 1.0 0.00 0.00 0.00 82 1013.5
20260504170321 58 243 0.0 0.0 0.00 0.00 0.00 83 1013.5
20260504160333 56 242 0.0 0.0 0.00 0.00 0.00 88 1013.3
20260504150857 51 242 0.0 0.0 0.00 0.00 0.00 94 1013.3
20260504150325 51 242 0.0 0.0 0.00 0.00 0.00 94 1013.2
20260504141323 50 242 0.0 0.0 0.00 0.00 0.00 93 1012.6
20260504140853 50 242 0.0 0.0 0.00 0.00 0.00 93 1012.5
20260504140325 49 242 0.0 0.0 0.00 0.00 0.00 92 1012.5
20260504130816 50 242 0.0 0.0 0.00 0.00 0.00 91 1011.6
20260504130326 50 242 0.0 0.0 0.00 0.00 0.00 91 1011.4